TimeEDT,TemperatureF,Dew PointF,Humidity,Sea Level PressureIn,VisibilityMPH,Wind Direction,Wind SpeedMPH,Gust SpeedMPH,PrecipitationIn,Events,Conditions,WindDirDegrees,DateUTC
12:56 AM,65.8,59.9,81,29.90,10.0,South,5.8,-,N/A,,Overcast,180,2013-08-13 04:56:00
1:56 AM,65.8,59.9,81,29.87,10.0,South,5.8,-,N/A,,Overcast,180,2013-08-13 05:56:00
2:56 AM,65.8,59.9,81,29.84,10.0,South,3.5,-,N/A,,Overcast,180,2013-08-13 06:56:00
3:56 AM,63.9,61.0,90,29.82,10.0,Calm,Calm,-,N/A,,Overcast,0,2013-08-13 07:56:00
4:56 AM,63.9,61.0,90,29.82,9.0,North,5.8,-,0.00,Rain,Light Rain,350,2013-08-13 08:56:00
5:22 AM,62.6,60.8,94,29.84,10.0,NNE,6.9,-,0.03,Rain-Thunderstorm,Rain,30,2013-08-13 09:22:00
6:56 AM,61.9,61.0,97,29.81,4.0,SE,3.5,-,0.21,Rain,Light Rain,130,2013-08-13 10:56:00
7:56 AM,61.9,61.0,97,29.78,10.0,ESE,4.6,-,0.00,,Mostly Cloudy,120,2013-08-13 11:56:00
8:56 AM,64.9,61.9,90,29.79,10.0,SSW,4.6,-,N/A,,Mostly Cloudy,200,2013-08-13 12:56:00
9:38 AM,68.0,62.6,83,29.80,10.0,South,6.9,-,N/A,,Mostly Cloudy,180,2013-08-13 13:38:00
9:56 AM,68.0,63.0,84,29.80,10.0,South,8.1,-,N/A,,Mostly Cloudy,190,2013-08-13 13:56:00
10:56 AM,68.9,63.9,84,29.80,10.0,WSW,5.8,-,N/A,,Overcast,240,2013-08-13 14:56:00
11:56 AM,70.9,61.9,73,29.79,10.0,SW,5.8,-,N/A,,Overcast,220,2013-08-13 15:56:00
12:39 PM,73.4,62.6,69,29.79,10.0,SW,5.8,-,N/A,,Mostly Cloudy,220,2013-08-13 16:39:00
12:56 PM,73.9,63.9,71,29.77,10.0,Variable,6.9,-,N/A,,Mostly Cloudy,0,2013-08-13 16:56:00
1:56 PM,73.9,63.9,71,29.76,10.0,West,5.8,-,N/A,,Mostly Cloudy,280,2013-08-13 17:56:00
2:56 PM,72.9,63.0,71,29.76,10.0,WNW,9.2,-,N/A,,Mostly Cloudy,300,2013-08-13 18:56:00
3:00 PM,71.6,62.6,73,29.78,6.0,NW,25.3,35.7,0.04,Rain,Heavy Rain,310,2013-08-13 19:00:00
3:06 PM,69.8,64.4,83,29.79,1.0,NW,18.4,35.7,0.22,Rain,Heavy Rain,310,2013-08-13 19:06:00
3:21 PM,64.4,62.6,94,29.79,4.0,NNW,11.5,-,0.34,Rain,Light Rain,340,2013-08-13 19:21:00
3:56 PM,65.8,63.0,90,29.78,6.0,NNW,3.5,-,0.34,,Mostly Cloudy,330,2013-08-13 19:56:00
4:56 PM,68.9,64.9,87,29.77,8.0,WNW,4.6,-,0.00,,Mostly Cloudy,300,2013-08-13 20:56:00
5:33 PM,69.8,64.4,83,29.79,10.0,NW,6.9,-,0.00,,Mostly Cloudy,310,2013-08-13 21:33:00
5:56 PM,68.9,63.0,81,29.78,10.0,NNW,10.4,-,0.00,,Mostly Cloudy,330,2013-08-13 21:56:00
6:56 PM,68.0,56.8,67,29.80,10.0,WNW,13.8,-,N/A,,Mostly Cloudy,300,2013-08-13 22:56:00
7:56 PM,63.9,52.9,67,29.82,10.0,NW,12.7,-,N/A,,Scattered Clouds,310,2013-08-13 23:56:00
8:56 PM,61.9,50.9,67,29.85,10.0,NNW,12.7,19.6,N/A,,Mostly Cloudy,340,2013-08-14 00:56:00
9:56 PM,59.0,48.9,69,29.87,10.0,NNW,10.4,-,N/A,,Mostly Cloudy,330,2013-08-14 01:56:00
10:56 PM,56.8,47.8,72,29.88,10.0,NW,9.2,-,N/A,,Mostly Cloudy,320,2013-08-14 02:56:00
11:56 PM,54.9,47.8,77,29.88,10.0,NW,5.8,-,N/A,,Mostly Cloudy,310,2013-08-14 03:56:00